Tracking 28052 objects as of 23-Sep-2023
HD Live streaming from Space Station
objects crossing your sky now

STARLINK-5173

Track STARLINK-5173 now!
10-day predictions
STARLINK-5173 is classified as:


NORAD ID: 54059
Int'l Code: 2022-136J
Perigee: 546.0 km
Apogee: 547.7 km
Inclination: 53.2 °
Period: 95.4 minutes
Semi major axis: 6917 km
RCS: Unknown
Launch date: October 20, 2022
Source: United States (US)
Launch site: AIR FORCE EASTERN TEST RANGE (AFETR)
Your satellite tracking list
Your tracking list is empty




NASA's NSSDC Master Catalog

Two Line Element Set (TLE):
1 54059U 22136J   23266.14557620  .00003548  00000-0  24082-3 0  9995
2 54059  53.2174  57.8906 0001246  81.9890 278.1244 15.08849992 51672
Source of the keplerian elements: AFSPC